,,PA_Meas_PMT16A,,PR_Meas_QMR101_102,,RH_Meas_QMH101,,SR_Meas_QMS101,,TA_Meas_QMH101,,GenWind,,GenWind,
time,status,PA,status,PR,status,RH,status,SR,status,TA,status,DirAvg,status,SpdAvg,
2013-10-23, 00:00:04,VALID,918.345,VALID,0,VALID,96.9012,VALID,0,VALID,20.0733,VALID,117,VALID,0,
2013-10-23, 00:01:04,VALID,918.305,VALID,0,VALID,96.8403,VALID,0,VALID,20.0944,VALID,122,VALID,0,
2013-10-23, 00:02:04,VALID,918.316,VALID,0,VALID,96.8326,VALID,0,VALID,20.0733,VALID,121,VALID,0,
2013-10-23, 00:03:04,VALID,918.321,VALID,0,VALID,96.8098,VALID,0,VALID,20.0944,VALID,169,VALID,0,
2013-10-23, 00:04:04,VALID,918.309,VALID,0,VALID,96.7945,VALID,0,VALID,20.0928,VALID,151,VALID,0,
2013-10-23, 00:05:04,VALID,918.297,VALID,0,VALID,96.7488,VALID,0,VALID,20.1139,VALID,151,VALID,0,
2013-10-23, 00:06:04,VALID,918.299,VALID,0,VALID,96.7259,VALID,0,VALID,20.0944,VALID,135,VALID,0,
2013-10-23, 00:07:04,VALID,918.301,VALID,0,VALID,96.7411,VALID,0,VALID,20.0944,VALID,130,VALID,0,
2013-10-23, 00:08:04,VALID,918.304,VALID,0,VALID,96.7183,VALID,0,VALID,20.0749,VALID,130,VALID,0,
2013-10-23, 00:09:04,VALID,918.294,VALID,0,VALID,96.6954,VALID,0,VALID,20.0553,VALID,133,VALID,0,
2013-10-23, 00:10:04,VALID,918.276,VALID,0,VALID,96.6878,VALID,0,VALID,20.0749,VALID,137,VALID,0,
2013-10-23, 00:11:04,VALID,918.283,VALID,0,VALID,96.6725,VALID,0,VALID,20.0749,VALID,170,VALID,0,
2013-10-23, 00:12:04,VALID,918.239,VALID,0,VALID,96.6573,VALID,0,VALID,20.0538,VALID,130,VALID,0,
2013-10-23, 00:13:04,VALID,918.229,VALID,0,VALID,96.6344,VALID,0,VALID,20.0553,VALID,128,VALID,0,
2013-10-23, 00:14:04,VALID,918.23,VALID,0,VALID,96.6344,VALID,0,VALID,20.0358,VALID,130,VALID,0,
2013-10-23, 00:15:04,VALID,918.25,VALID,0,VALID,96.6039,VALID,0,VALID,19.9968,VALID,217,VALID,0,
2013-10-23, 00:16:04,VALID,918.23,VALID,0,VALID,96.6115,VALID,0,VALID,19.9578,VALID,217,VALID,0,
2013-10-23, 00:17:04,VALID,918.239,VALID,0,VALID,96.6039,VALID,0,VALID,19.9188,VALID,217,VALID,0,
2013-10-23, 00:18:04,VALID,918.202,VALID,0,VALID,96.6268,VALID,0,VALID,19.8798,VALID,217,VALID,0,
2013-10-23, 00:19:04,VALID,918.205,VALID,0,VALID,96.6497,VALID,0,VALID,19.8993,VALID,217,VALID,0,
2013-10-23, 00:20:04,VALID,918.219,VALID,0,VALID,96.642,VALID,0,VALID,19.9173,VALID,217,VALID,0,
2013-10-23, 00:21:04,VALID,918.185,VALID,0,VALID,96.6573,VALID,0,VALID,19.8978,VALID,217,VALID,0,
2013-10-23, 00:22:04,VALID,918.161,VALID,0,VALID,96.6649,VALID,0,VALID,19.8978,VALID,177,VALID,0,
2013-10-23, 00:23:04,VALID,918.169,VALID,0,VALID,96.6649,VALID,0,VALID,19.8978,VALID,176,VALID,0,
2013-10-23, 00:24:04,VALID,918.158,VALID,0,VALID,96.6573,VALID,0,VALID,19.8978,VALID,144,VALID,0,
2013-10-23, 00:25:04,VALID,918.133,VALID,0,VALID,96.6649,VALID,0,VALID,19.9158,VALID,200,VALID,0,
2013-10-23, 00:26:04,VALID,918.112,VALID,0,VALID,96.6802,VALID,0,VALID,19.9158,VALID,142,VALID,0,
2013-10-23, 00:27:04,VALID,918.138,VALID,0,VALID,96.6649,VALID,0,VALID,19.9563,VALID,142,VALID,0,
2013-10-23, 00:28:04,VALID,918.128,VALID,0,VALID,96.6802,VALID,0,VALID,19.9563,VALID,142,VALID,0,
2013-10-23, 00:29:04,VALID,918.125,VALID,0,VALID,96.6725,VALID,0.107441,VALID,19.9563,VALID,142,VALID,0,
2013-10-23, 00:30:04,VALID,918.123,VALID,0,VALID,96.6725,VALID,0,VALID,19.9758,VALID,142,VALID,0,
2013-10-23, 00:31:04,VALID,918.146,VALID,0,VALID,96.6725,VALID,0.107441,VALID,19.9563,VALID,142,VALID,0,
2013-10-23, 00:32:04,VALID,918.119,VALID,0,VALID,96.6649,VALID,0,VALID,19.9563,VALID,142,VALID,0,
2013-10-23, 00:33:04,VALID,918.094,VALID,0,VALID,96.6649,VALID,0,VALID,19.9758,VALID,138,VALID,0,
2013-10-23, 00:34:04,VALID,918.113,VALID,0,VALID,96.6573,VALID,0,VALID,19.9758,VALID,140,VALID,0,
2013-10-23, 00:35:04,VALID,918.094,VALID,0,VALID,96.6649,VALID,0,VALID,19.9758,VALID,140,VALID,0,
2013-10-23, 00:36:04,VALID,918.08,VALID,0,VALID,96.6497,VALID,0,VALID,19.9563,VALID,140,VALID,0,
2013-10-23, 00:37:04,VALID,918.08,VALID,0,VALID,96.6497,VALID,0,VALID,19.9368,VALID,170,VALID,0,
2013-10-23, 00:38:04,VALID,918.042,VALID,0,VALID,96.642,VALID,0,VALID,19.9173,VALID,175,VALID,0,
2013-10-23, 00:39:04,VALID,918.035,VALID,0,VALID,96.6497,VALID,0,VALID,19.9173,VALID,172,VALID,0,
2013-10-23, 00:40:04,VALID,918.034,VALID,0,VALID,96.642,VALID,0,VALID,19.9173,VALID,171,VALID,0,
2013-10-23, 00:41:04,VALID,918.053,VALID,0,VALID,96.6573,VALID,0,VALID,19.8978,VALID,171,VALID,0,
2013-10-23, 00:42:04,VALID,918.049,VALID,0,VALID,96.642,VALID,0,VALID,19.8993,VALID,171,VALID,0,
2013-10-23, 00:43:04,VALID,918.033,VALID,0,VALID,96.6649,VALID,0,VALID,19.8783,VALID,171,VALID,0,
2013-10-23, 00:44:04,VALID,918.058,VALID,0,VALID,96.6725,VALID,0,VALID,19.8783,VALID,168,VALID,0,
2013-10-23, 00:45:04,VALID,918.051,VALID,0,VALID,96.6802,VALID,0,VALID,19.8783,VALID,164,VALID,0,
2013-10-23, 00:46:04,VALID,918.052,VALID,0,VALID,96.6878,VALID,0.107441,VALID,19.8978,VALID,144,VALID,0,
2013-10-23, 00:47:04,VALID,918.078,VALID,0,VALID,96.6954,VALID,0.107441,VALID,19.8978,VALID,143,VALID,0,
2013-10-23, 00:48:04,VALID,918.06,VALID,0,VALID,96.703,VALID,0,VALID,19.8978,VALID,143,VALID,0,
2013-10-23, 00:49:04,VALID,918.053,VALID,0,VALID,96.7335,VALID,0,VALID,19.8978,VALID,143,VALID,0,
2013-10-23, 00:50:04,VALID,918.027,VALID,0,VALID,96.7335,VALID,0.107441,VALID,19.8978,VALID,144,VALID,0,
2013-10-23, 00:51:04,VALID,918.028,VALID,0,VALID,96.7107,VALID,0,VALID,19.8978,VALID,139,VALID,0,
2013-10-23, 00:52:04,VALID,918.003,VALID,0,VALID,96.764,VALID,0,VALID,19.9173,VALID,168,VALID,0,
2013-10-23, 00:53:04,VALID,918.019,VALID,0,VALID,96.7564,VALID,0,VALID,19.9173,VALID,164,VALID,0,
2013-10-23, 00:54:04,VALID,917.991,VALID,0,VALID,96.7335,VALID,0,VALID,19.9173,VALID,158,VALID,0,
2013-10-23, 00:55:04,VALID,918.014,VALID,0,VALID,96.7411,VALID,0,VALID,19.9173,VALID,133,VALID,0,
2013-10-23, 00:56:04,VALID,918.007,VALID,0,VALID,96.7335,VALID,0,VALID,19.9173,VALID,137,VALID,0,
2013-10-23, 00:57:04,VALID,917.987,VALID,0,VALID,96.7259,VALID,0,VALID,19.9368,VALID,137,VALID,0,
2013-10-23, 00:58:04,VALID,917.981,VALID,0,VALID,96.764,VALID,0.107441,VALID,19.9368,VALID,133,VALID,0,
2013-10-23, 00:59:04,VALID,917.987,VALID,0,VALID,96.7564,VALID,0,VALID,19.9368,VALID,139,VALID,0,
2013-10-23, 01:00:04,VALID,917.946,VALID,0,VALID,96.764,VALID,0,VALID,19.9563,VALID,124,VALID,0,
2013-10-23, 01:01:04,VALID,917.978,VALID,0,VALID,96.7411,VALID,0,VALID,19.9563,VALID,130,VALID,0,
2013-10-23, 01:02:04,VALID,917.942,VALID,0,VALID,96.7716,VALID,0,VALID,19.9563,VALID,133,VALID,0,
2013-10-23, 01:03:04,VALID,917.933,VALID,0,VALID,96.7793,VALID,0,VALID,19.9368,VALID,143,VALID,0,
2013-10-23, 01:04:04,VALID,917.958,VALID,0,VALID,96.7793,VALID,0,VALID,19.9368,VALID,122,VALID,0,
2013-10-23, 01:05:04,VALID,917.897,VALID,0,VALID,96.764,VALID,0,VALID,19.9368,VALID,128,VALID,0,
2013-10-23, 01:06:04,VALID,917.896,VALID,0,VALID,96.7716,VALID,0,VALID,19.9173,VALID,124,VALID,0,
2013-10-23, 01:07:04,VALID,917.886,VALID,0,VALID,96.7793,VALID,0,VALID,19.9173,VALID,138,VALID,0,
2013-10-23, 01:08:04,VALID,917.87,VALID,0,VALID,96.7945,VALID,0,VALID,19.9368,VALID,141,VALID,0,
2013-10-23, 01:09:04,VALID,917.865,VALID,0,VALID,96.8021,VALID,0,VALID,19.9368,VALID,133,VALID,0,
2013-10-23, 01:10:04,VALID,917.838,VALID,0,VALID,96.8098,VALID,0,VALID,19.9368,VALID,136,VALID,0,
2013-10-23, 01:11:04,VALID,917.81,VALID,0,VALID,96.8098,VALID,0,VALID,19.9173,VALID,125,VALID,0,
2013-10-23, 01:12:04,VALID,917.818,VALID,0,VALID,96.8098,VALID,0.107441,VALID,19.8768,VALID,137,VALID,0,
2013-10-23, 01:13:04,VALID,917.789,VALID,0,VALID,96.7869,VALID,0,VALID,19.9173,VALID,145,VALID,0,
2013-10-23, 01:14:04,VALID,917.778,VALID,0,VALID,96.8326,VALID,0,VALID,19.8978,VALID,151,VALID,0,
2013-10-23, 01:15:04,VALID,917.748,VALID,0,VALID,96.8098,VALID,0,VALID,19.8783,VALID,132,VALID,0,
2013-10-23, 01:16:04,VALID,917.739,VALID,0,VALID,96.7945,VALID,0,VALID,19.9368,VALID,102,VALID,0,
2013-10-23, 01:17:04,VALID,917.772,VALID,0,VALID,96.7793,VALID,0,VALID,19.9563,VALID,136,VALID,0,
2013-10-23, 01:18:04,VALID,917.761,VALID,0,VALID,96.7564,VALID,0,VALID,19.9758,VALID,124,VALID,0,
2013-10-23, 01:19:04,VALID,917.742,VALID,0,VALID,96.7488,VALID,0,VALID,19.9758,VALID,126,VALID,0,
2013-10-23, 01:20:04,VALID,917.713,VALID,0,VALID,96.7488,VALID,0,VALID,19.9758,VALID,122,VALID,0,
2013-10-23, 01:21:04,VALID,917.685,VALID,0,VALID,96.7259,VALID,0,VALID,20.0148,VALID,146,VALID,0,
2013-10-23, 01:22:04,VALID,917.651,VALID,0,VALID,96.7107,VALID,0.107441,VALID,20.0133,VALID,141,VALID,0,
2013-10-23, 01:23:04,VALID,917.66,VALID,0,VALID,96.6878,VALID,0,VALID,20.0343,VALID,142,VALID,0,
2013-10-23, 01:24:04,VALID,917.59,VALID,0,VALID,96.6497,VALID,0.107441,VALID,20.0148,VALID,134,VALID,0,
2013-10-23, 01:25:04,VALID,917.646,VALID,0,VALID,96.6497,VALID,0,VALID,20.0148,VALID,128,VALID,0,
2013-10-23, 01:26:04,VALID,917.583,VALID,0,VALID,96.6115,VALID,0,VALID,20.0343,VALID,138,VALID,0,
2013-10-23, 01:27:04,VALID,917.59,VALID,0,VALID,96.5734,VALID,0,VALID,20.0328,VALID,129,VALID,0,
2013-10-23, 01:28:04,VALID,917.525,VALID,0,VALID,96.5353,VALID,0,VALID,20.0538,VALID,132,VALID,0,
2013-10-23, 01:29:04,VALID,917.534,VALID,0,VALID,96.4896,VALID,0,VALID,20.0733,VALID,131,VALID,0,
2013-10-23, 01:30:04,VALID,917.515,VALID,0,VALID,96.4362,VALID,0,VALID,20.0944,VALID,130,VALID,0,
2013-10-23, 01:31:04,VALID,917.508,VALID,0,VALID,96.3676,VALID,0,VALID,20.1123,VALID,125,VALID,0,
2013-10-23, 01:32:04,VALID,917.437,VALID,0,VALID,96.2761,VALID,0,VALID,20.1724,VALID,113,VALID,0,
2013-10-23, 01:33:04,VALID,917.423,VALID,0,VALID,96.1923,VALID,0,VALID,20.1123,VALID,108,VALID,0,
2013-10-23, 01:34:04,VALID,917.417,VALID,0,VALID,96.1008,VALID,0,VALID,20.1123,VALID,125,VALID,0,
2013-10-23, 01:35:04,VALID,917.414,VALID,0,VALID,95.9941,VALID,0.107441,VALID,20.1123,VALID,126,VALID,0,
2013-10-23, 01:36:04,VALID,917.393,VALID,0,VALID,95.9254,VALID,0.107441,VALID,20.1123,VALID,129,VALID,0,
2013-10-23, 01:37:04,VALID,917.376,VALID,0,VALID,95.8035,VALID,0,VALID,20.1318,VALID,118,VALID,0,
2013-10-23, 01:38:04,VALID,917.354,VALID,0,VALID,95.7349,VALID,0,VALID,20.1498,VALID,114,VALID,0,
2013-10-23, 01:39:04,VALID,917.321,VALID,0,VALID,95.6205,VALID,0,VALID,20.1513,VALID,122,VALID,0,
2013-10-23, 01:40:04,VALID,917.322,VALID,0,VALID,95.5367,VALID,0.107441,VALID,20.1303,VALID,121,VALID,0,
2013-10-23, 01:41:04,VALID,917.328,VALID,0,VALID,95.4757,VALID,0.107441,VALID,20.1108,VALID,126,VALID,0,
2013-10-23, 01:42:04,VALID,917.306,VALID,0,VALID,95.4452,VALID,0.107441,VALID,20.1108,VALID,142,VALID,0,
2013-10-23, 01:43:04,VALID,917.304,VALID,0,VALID,95.3842,VALID,0.107441,VALID,20.0913,VALID,144,VALID,0,
2013-10-23, 01:44:04,VALID,917.289,VALID,0,VALID,95.3613,VALID,0,VALID,20.1123,VALID,138,VALID,0,
2013-10-23, 01:45:04,VALID,917.299,VALID,0,VALID,95.3003,VALID,0,VALID,20.0928,VALID,142,VALID,0,
2013-10-23, 01:46:04,VALID,917.272,VALID,0,VALID,95.2775,VALID,0,VALID,20.1123,VALID,134,VALID,0,
2013-10-23, 01:47:04,VALID,917.268,VALID,0,VALID,95.247,VALID,0,VALID,20.1123,VALID,136,VALID,0,
2013-10-23, 01:48:04,VALID,917.248,VALID,0,VALID,95.1707,VALID,0,VALID,20.1318,VALID,136,VALID,0,
2013-10-23, 01:49:04,VALID,917.192,VALID,0,VALID,95.1021,VALID,0,VALID,20.1318,VALID,139,VALID,0,
2013-10-23, 01:50:04,VALID,917.216,VALID,0,VALID,95.0869,VALID,0,VALID,20.1123,VALID,171,VALID,0,
2013-10-23, 01:51:04,VALID,917.177,VALID,0,VALID,95.0716,VALID,0,VALID,20.1139,VALID,171,VALID,0,
2013-10-23, 01:52:04,VALID,917.193,VALID,0,VALID,95.0792,VALID,0,VALID,20.0944,VALID,171,VALID,0,
2013-10-23, 01:53:04,VALID,917.18,VALID,0,VALID,95.1174,VALID,0,VALID,20.0553,VALID,171,VALID,0,
2013-10-23, 01:54:04,VALID,917.17,VALID,0,VALID,95.1631,VALID,0,VALID,19.9758,VALID,225,VALID,0,
2013-10-23, 01:55:04,VALID,917.189,VALID,0,VALID,95.2851,VALID,0,VALID,19.9188,VALID,232,VALID,0,
2013-10-23, 01:56:04,VALID,917.181,VALID,0,VALID,95.4299,VALID,0,VALID,19.8393,VALID,232,VALID,0,
2013-10-23, 01:57:04,VALID,917.149,VALID,0,VALID,95.5824,VALID,0,VALID,19.8003,VALID,296,VALID,0,
2013-10-23, 01:58:04,VALID,917.17,VALID,0,VALID,95.6891,VALID,0,VALID,19.8018,VALID,296,VALID,0,
2013-10-23, 01:59:04,VALID,917.144,VALID,0,VALID,95.8263,VALID,0,VALID,19.7613,VALID,296,VALID,0,
2013-10-23, 02:00:04,VALID,917.146,VALID,0,VALID,95.9102,VALID,0,VALID,19.7418,VALID,296,VALID,0,
2013-10-23, 02:01:04,VALID,917.17,VALID,0,VALID,96.0169,VALID,0,VALID,19.7628,VALID,211,VALID,0,
2013-10-23, 02:02:04,VALID,917.16,VALID,0,VALID,96.0703,VALID,0,VALID,19.7418,VALID,206,VALID,0,
2013-10-23, 02:03:04,VALID,917.169,VALID,0,VALID,96.116,VALID,0,VALID,19.7628,VALID,206,VALID,0,
2013-10-23, 02:04:04,VALID,917.145,VALID,0,VALID,96.177,VALID,0,VALID,19.7418,VALID,206,VALID,0,
2013-10-23, 02:05:04,VALID,917.171,VALID,0,VALID,96.1999,VALID,0,VALID,19.7223,VALID,206,VALID,0,
2013-10-23, 02:06:04,VALID,917.16,VALID,0,VALID,96.238,VALID,0,VALID,19.7433,VALID,206,VALID,0,
2013-10-23, 02:07:04,VALID,917.164,VALID,0,VALID,96.2914,VALID,0,VALID,19.7433,VALID,206,VALID,0,
2013-10-23, 02:08:04,VALID,917.176,VALID,0,VALID,96.299,VALID,0,VALID,19.7418,VALID,206,VALID,0,
2013-10-23, 02:09:04,VALID,917.166,VALID,0,VALID,96.3447,VALID,0,VALID,19.7628,VALID,206,VALID,0,
2013-10-23, 02:10:04,VALID,917.158,VALID,0,VALID,96.36,VALID,0,VALID,19.7823,VALID,206,VALID,0,
2013-10-23, 02:11:04,VALID,917.16,VALID,0,VALID,96.3905,VALID,0,VALID,19.7613,VALID,206,VALID,0,
2013-10-23, 02:12:04,VALID,917.18,VALID,0,VALID,96.4057,VALID,0,VALID,19.7808,VALID,206,VALID,0,
2013-10-23, 02:13:04,VALID,917.159,VALID,0,VALID,96.4286,VALID,0,VALID,19.7808,VALID,206,VALID,0,
2013-10-23, 02:14:04,VALID,917.161,VALID,0,VALID,96.4515,VALID,0,VALID,19.7808,VALID,206,VALID,0,
2013-10-23, 02:15:04,VALID,917.15,VALID,0,VALID,96.4515,VALID,0,VALID,19.8018,VALID,206,VALID,0,
2013-10-23, 02:16:04,VALID,917.162,VALID,0,VALID,96.4515,VALID,0,VALID,19.7628,VALID,206,VALID,0,
2013-10-23, 02:17:04,VALID,917.118,VALID,0,VALID,96.4515,VALID,0,VALID,19.7223,VALID,206,VALID,0,
2013-10-23, 02:18:04,VALID,917.125,VALID,0,VALID,96.4819,VALID,0,VALID,19.7028,VALID,206,VALID,0,
2013-10-23, 02:19:04,VALID,917.108,VALID,0,VALID,96.4743,VALID,0,VALID,19.7043,VALID,206,VALID,0,
2013-10-23, 02:20:04,VALID,917.105,VALID,0,VALID,96.5201,VALID,0,VALID,19.6833,VALID,206,VALID,0,
2013-10-23, 02:21:04,VALID,917.087,VALID,0,VALID,96.5277,VALID,0,VALID,19.7043,VALID,206,VALID,0,
2013-10-23, 02:22:04,VALID,917.125,VALID,0,VALID,96.5353,VALID,0,VALID,19.7223,VALID,206,VALID,0,
2013-10-23, 02:23:04,VALID,917.088,VALID,0,VALID,96.5658,VALID,0,VALID,19.7418,VALID,206,VALID,0,
2013-10-23, 02:24:04,VALID,917.078,VALID,0,VALID,96.5734,VALID,0,VALID,19.7628,VALID,206,VALID,0,
2013-10-23, 02:25:04,VALID,917.107,VALID,0,VALID,96.6039,VALID,0,VALID,19.7433,VALID,206,VALID,0,
2013-10-23, 02:26:04,VALID,917.085,VALID,0,VALID,96.6115,VALID,0,VALID,19.7223,VALID,206,VALID,0,
2013-10-23, 02:27:04,VALID,917.092,VALID,0,VALID,96.6192,VALID,0,VALID,19.7223,VALID,206,VALID,0,
2013-10-23, 02:28:04,VALID,917.1,VALID,0,VALID,96.6039,VALID,0,VALID,19.7238,VALID,206,VALID,0,
2013-10-23, 02:29:04,VALID,917.075,VALID,0,VALID,96.6192,VALID,0,VALID,19.7028,VALID,206,VALID,0,
2013-10-23, 02:30:04,VALID,917.102,VALID,0,VALID,96.642,VALID,0,VALID,19.7043,VALID,206,VALID,0,
2013-10-23, 02:31:04,VALID,917.102,VALID,0,VALID,96.6344,VALID,0,VALID,19.7028,VALID,206,VALID,0,
2013-10-23, 02:32:04,VALID,917.11,VALID,0,VALID,96.642,VALID,0,VALID,19.7043,VALID,206,VALID,0,
2013-10-23, 02:33:04,VALID,917.105,VALID,0,VALID,96.6268,VALID,0,VALID,19.6848,VALID,206,VALID,0,
2013-10-23, 02:34:04,VALID,917.111,VALID,0,VALID,96.6649,VALID,0,VALID,19.6638,VALID,206,VALID,0,
2013-10-23, 02:35:04,VALID,917.128,VALID,0,VALID,96.703,VALID,0,VALID,19.6443,VALID,206,VALID,0,
2013-10-23, 02:36:04,VALID,917.11,VALID,0,VALID,96.6802,VALID,0,VALID,19.6458,VALID,206,VALID,0,
2013-10-23, 02:37:04,VALID,917.111,VALID,0,VALID,96.6878,VALID,0,VALID,19.6263,VALID,166,VALID,0,
2013-10-23, 02:38:04,VALID,917.123,VALID,0,VALID,96.7183,VALID,0,VALID,19.6458,VALID,157,VALID,0,
2013-10-23, 02:39:04,VALID,917.118,VALID,0,VALID,96.703,VALID,0,VALID,19.6263,VALID,157,VALID,0,
2013-10-23, 02:40:04,VALID,917.1,VALID,0,VALID,96.7259,VALID,0,VALID,19.6053,VALID,157,VALID,0,
2013-10-23, 02:41:04,VALID,917.101,VALID,0,VALID,96.7259,VALID,0,VALID,19.6263,VALID,157,VALID,0,
2013-10-23, 02:42:04,VALID,917.063,VALID,0,VALID,96.7411,VALID,0,VALID,19.6263,VALID,157,VALID,0,
2013-10-23, 02:43:04,VALID,917.087,VALID,0,VALID,96.764,VALID,0,VALID,19.6053,VALID,157,VALID,0,
2013-10-23, 02:44:04,VALID,917.042,VALID,0,VALID,96.764,VALID,0,VALID,19.6263,VALID,157,VALID,0,
2013-10-23, 02:45:04,VALID,917.04,VALID,0,VALID,96.7869,VALID,0,VALID,19.6263,VALID,157,VALID,0,
2013-10-23, 02:46:04,VALID,917.059,VALID,0,VALID,96.7869,VALID,0,VALID,19.6458,VALID,157,VALID,0,
2013-10-23, 02:47:04,VALID,917.051,VALID,0,VALID,96.8021,VALID,0,VALID,19.6263,VALID,157,VALID,0,
2013-10-23, 02:48:04,VALID,917.046,VALID,0,VALID,96.7793,VALID,0,VALID,19.6458,VALID,157,VALID,0,
2013-10-23, 02:49:04,VALID,917.045,VALID,0,VALID,96.7945,VALID,0,VALID,19.6263,VALID,157,VALID,0,
2013-10-23, 02:50:04,VALID,917.056,VALID,0,VALID,96.8174,VALID,0,VALID,19.6068,VALID,157,VALID,0,
2013-10-23, 02:51:04,VALID,917.038,VALID,0,VALID,96.7945,VALID,0,VALID,19.6263,VALID,157,VALID,0,
2013-10-23, 02:52:04,VALID,917.026,VALID,0,VALID,96.8326,VALID,0,VALID,19.6068,VALID,157,VALID,0,
2013-10-23, 02:53:04,VALID,917.037,VALID,0,VALID,96.825,VALID,0,VALID,19.6263,VALID,157,VALID,0,
2013-10-23, 02:54:04,VALID,917.017,VALID,0,VALID,96.825,VALID,0,VALID,19.6263,VALID,157,VALID,0,
2013-10-23, 02:55:04,VALID,917.026,VALID,0,VALID,96.8174,VALID,0,VALID,19.6263,VALID,157,VALID,0,
2013-10-23, 02:56:04,VALID,917.032,VALID,0,VALID,96.8555,VALID,0,VALID,19.6458,VALID,157,VALID,0,
2013-10-23, 02:57:04,VALID,916.996,VALID,0,VALID,96.8631,VALID,0,VALID,19.6458,VALID,157,VALID,0,
2013-10-23, 02:58:04,VALID,917.019,VALID,0,VALID,96.8631,VALID,0,VALID,19.6263,VALID,157,VALID,0,
2013-10-23, 02:59:04,VALID,916.98,VALID,0,VALID,96.8403,VALID,0,VALID,19.6248,VALID,157,VALID,0,
2013-10-23, 03:00:04,VALID,916.967,VALID,0,VALID,96.8555,VALID,0,VALID,19.6248,VALID,159,VALID,0,
2013-10-23, 03:01:04,VALID,916.974,VALID,0,VALID,96.886,VALID,0,VALID,19.6458,VALID,159,VALID,0,
2013-10-23, 03:02:04,VALID,916.979,VALID,0,VALID,96.8631,VALID,0,VALID,19.6443,VALID,158,VALID,0,
2013-10-23, 03:03:04,VALID,916.963,VALID,0,VALID,96.886,VALID,0,VALID,19.6653,VALID,158,VALID,0,
2013-10-23, 03:04:04,VALID,916.969,VALID,0,VALID,96.9012,VALID,0,VALID,19.6653,VALID,158,VALID,0,
2013-10-23, 03:05:04,VALID,916.946,VALID,0,VALID,96.9012,VALID,0,VALID,19.6653,VALID,159,VALID,0,
2013-10-23, 03:06:04,VALID,916.947,VALID,0,VALID,96.9165,VALID,0,VALID,19.6653,VALID,160,VALID,0,
2013-10-23, 03:07:04,VALID,916.971,VALID,0,VALID,96.8784,VALID,0,VALID,19.6458,VALID,160,VALID,0,
2013-10-23, 03:08:04,VALID,916.962,VALID,0,VALID,96.9165,VALID,0,VALID,19.6263,VALID,161,VALID,0,
2013-10-23, 03:09:04,VALID,916.972,VALID,0,VALID,96.8936,VALID,0,VALID,19.6263,VALID,160,VALID,0,
2013-10-23, 03:10:04,VALID,916.956,VALID,0,VALID,96.9241,VALID,0,VALID,19.5858,VALID,142,VALID,0,
2013-10-23, 03:11:04,VALID,916.962,VALID,0,VALID,96.9394,VALID,0,VALID,19.6053,VALID,144,VALID,0,
2013-10-23, 03:12:04,VALID,916.941,VALID,0,VALID,96.9165,VALID,0,VALID,19.6458,VALID,148,VALID,0,
2013-10-23, 03:13:04,VALID,916.926,VALID,0,VALID,96.9165,VALID,0,VALID,19.6458,VALID,147,VALID,0,
2013-10-23, 03:14:04,VALID,916.938,VALID,0,VALID,96.9241,VALID,0,VALID,19.6863,VALID,137,VALID,0,
2013-10-23, 03:15:04,VALID,916.957,VALID,0,VALID,96.9241,VALID,0,VALID,19.6638,VALID,132,VALID,0,
2013-10-23, 03:16:04,VALID,916.919,VALID,0,VALID,96.9546,VALID,0,VALID,19.6443,VALID,137,VALID,0,
2013-10-23, 03:17:04,VALID,916.917,VALID,0,VALID,96.9546,VALID,0,VALID,19.6458,VALID,125,VALID,0,
2013-10-23, 03:18:04,VALID,916.898,VALID,0,VALID,96.9394,VALID,0,VALID,19.6653,VALID,140,VALID,0,
2013-10-23, 03:19:04,VALID,916.922,VALID,0,VALID,96.9241,VALID,0,VALID,19.6458,VALID,114,VALID,0,
2013-10-23, 03:20:04,VALID,916.925,VALID,0,VALID,96.9394,VALID,0.107441,VALID,19.6248,VALID,121,VALID,0,
2013-10-23, 03:21:04,VALID,916.914,VALID,0,VALID,96.9546,VALID,0.107441,VALID,19.6038,VALID,120,VALID,0,
2013-10-23, 03:22:04,VALID,916.891,VALID,0,VALID,96.9241,VALID,0,VALID,19.5843,VALID,119,VALID,0,
2013-10-23, 03:23:04,VALID,916.92,VALID,0,VALID,96.9698,VALID,0,VALID,19.5858,VALID,111,VALID,0,
2013-10-23, 03:24:04,VALID,916.892,VALID,0,VALID,96.9546,VALID,0.107441,VALID,19.5648,VALID,130,VALID,0,
2013-10-23, 03:25:04,VALID,916.879,VALID,0,VALID,96.9546,VALID,0.107441,VALID,19.5663,VALID,105,VALID,0,
2013-10-23, 03:26:04,VALID,916.84,VALID,0,VALID,96.947,VALID,0,VALID,19.5453,VALID,118,VALID,0,
2013-10-23, 03:27:04,VALID,916.844,VALID,0,VALID,96.9775,VALID,0,VALID,19.5468,VALID,113,VALID,0,
2013-10-23, 03:28:04,VALID,916.804,VALID,0,VALID,96.9775,VALID,0,VALID,19.5468,VALID,127,VALID,0,
2013-10-23, 03:29:04,VALID,916.79,VALID,0,VALID,96.9851,VALID,0,VALID,19.5468,VALID,124,VALID,0,
2013-10-23, 03:30:04,VALID,916.79,VALID,0,VALID,96.9775,VALID,0,VALID,19.5468,VALID,132,VALID,0,
2013-10-23, 03:31:04,VALID,916.79,VALID,0,VALID,96.9775,VALID,0,VALID,19.5468,VALID,137,VALID,0,
2013-10-23, 03:32:04,VALID,916.761,VALID,0,VALID,96.9698,VALID,0.107441,VALID,19.5273,VALID,118,VALID,0,
2013-10-23, 03:33:04,VALID,916.731,VALID,0,VALID,96.9775,VALID,0,VALID,19.5273,VALID,112,VALID,0,
2013-10-23, 03:34:04,VALID,916.743,VALID,0,VALID,96.9775,VALID,0,VALID,19.5273,VALID,129,VALID,0,
2013-10-23, 03:35:04,VALID,916.736,VALID,0,VALID,96.9775,VALID,0,VALID,19.5078,VALID,137,VALID,0,
2013-10-23, 03:36:04,VALID,916.739,VALID,0,VALID,96.9851,VALID,0,VALID,19.5483,VALID,140,VALID,0,
2013-10-23, 03:37:04,VALID,916.743,VALID,0,VALID,96.9851,VALID,0,VALID,19.5483,VALID,139,VALID,0,
2013-10-23, 03:38:04,VALID,916.729,VALID,0,VALID,96.9622,VALID,0,VALID,19.5273,VALID,136,VALID,0,
2013-10-23, 03:39:04,VALID,916.73,VALID,0,VALID,96.9622,VALID,0,VALID,19.5288,VALID,139,VALID,0,
2013-10-23, 03:40:04,VALID,916.713,VALID,0,VALID,96.9698,VALID,0,VALID,19.5288,VALID,139,VALID,0,
2013-10-23, 03:41:04,VALID,916.701,VALID,0,VALID,96.9775,VALID,0,VALID,19.5078,VALID,143,VALID,0,
2013-10-23, 03:42:04,VALID,916.714,VALID,0,VALID,96.9698,VALID,0,VALID,19.4883,VALID,143,VALID,0,
2013-10-23, 03:43:04,VALID,916.699,VALID,0,VALID,96.9622,VALID,0,VALID,19.5078,VALID,144,VALID,0,
2013-10-23, 03:44:04,VALID,916.724,VALID,0,VALID,96.9622,VALID,0,VALID,19.5078,VALID,143,VALID,0,
2013-10-23, 03:45:04,VALID,916.733,VALID,0,VALID,96.9698,VALID,0,VALID,19.5078,VALID,139,VALID,0,
2013-10-23, 03:46:04,VALID,916.706,VALID,0,VALID,96.9698,VALID,0,VALID,19.5273,VALID,147,VALID,0,
2013-10-23, 03:47:04,VALID,916.696,VALID,0,VALID,96.9622,VALID,0,VALID,19.5273,VALID,152,VALID,0,
2013-10-23, 03:48:04,VALID,916.698,VALID,0,VALID,96.9698,VALID,0,VALID,19.5288,VALID,154,VALID,0,
2013-10-23, 03:49:04,VALID,916.694,VALID,0,VALID,96.9698,VALID,0,VALID,19.5288,VALID,169,VALID,0,
2013-10-23, 03:50:04,VALID,916.694,VALID,0,VALID,96.9698,VALID,0,VALID,19.5273,VALID,130,VALID,0,
2013-10-23, 03:51:04,VALID,916.696,VALID,0,VALID,96.9775,VALID,0,VALID,19.5273,VALID,157,VALID,0,
2013-10-23, 03:52:04,VALID,916.677,VALID,0,VALID,96.9775,VALID,0,VALID,19.5678,VALID,144,VALID,0,
2013-10-23, 03:53:04,VALID,916.713,VALID,0,VALID,96.9546,VALID,0,VALID,19.5678,VALID,166,VALID,0,
2013-10-23, 03:54:04,VALID,916.704,VALID,0,VALID,96.947,VALID,0,VALID,19.5678,VALID,154,VALID,0,
2013-10-23, 03:55:04,VALID,916.699,VALID,0,VALID,96.9394,VALID,0,VALID,19.5873,VALID,173,VALID,0,
2013-10-23, 03:56:04,VALID,916.71,VALID,0,VALID,96.9317,VALID,0,VALID,19.5858,VALID,159,VALID,0,
2013-10-23, 03:57:04,VALID,916.702,VALID,0,VALID,96.9317,VALID,0,VALID,19.6263,VALID,151,VALID,0,
2013-10-23, 03:58:04,VALID,916.666,VALID,0,VALID,96.9012,VALID,0,VALID,19.6443,VALID,179,VALID,0,